This demonstration page uses our WeatherBlox Daily Observations layout. Learn more.

Hourly Observations for June 14, 2019

Temp ( °F °C ) Dew Point ( °F °C ) Humidity (%) Winds ( mph kmh ) Pressure ( in mb ) Visibility ( mi km ) Precip ( " mm )
12:15 am 00:15 Cloudy with Rain 64 17.6 54 12.3 71 71 W 8 13 29.88 1012 10 16.09344 0 0
12:35 am 00:35 Cloudy with Light Rain 62 16.6 56 13.5 82 82 NW 10 17 29.91 1013 5 8.04672 0.04 1.016
12:55 am 00:55 Cloudy with Light Rain 61 16.3 57 13.8 85 85 Calm 29.91 1013 7 11.265408 0.05 1.27
1:15 am 01:15 Cloudy with Light Rain 60 15.6 58 14.5 93 93 SSE 9 15 29.91 1013 10 16.09344 0.01 0.254
1:35 am 01:35 Cloudy with Rain 60 15.5 58 14.6 94 94 SSE 17 28 29.88 1012 7 11.265408 0.04 1.016
1:55 am 01:55 Cloudy with Light Rain 60 15.3 58 14.7 96 96 SE 15 24 29.8 1009 7 11.265408 0.08 2.032
2:15 am 02:15 Partly Cloudy with Light Drizzle 59 15.1 57 14 93 93 SE 13 20 29.8 1009 10 16.09344 0 0
2:35 am 02:35 Partly Cloudy 59 15 56 13.6 91 91 SE 16 26 29.77 1008 10 16.09344 0 0
2:55 am 02:55 Partly Cloudy 59 15 56 13.5 91 91 SE 13 20 29.74 1007 10 16.09344 0 0
3:15 am 03:15 Clear 58 14.7 56 13.5 93 93 SSE 15 24 29.74 1007 10 16.09344 0 0
3:35 am 03:35 Clear 58 14.6 56 13.5 93 93 SSE 13 20 29.74 1007 10 16.09344 0 0
3:55 am 03:55 Clear 58 14.6 56 13.3 92 92 SSE 10 17 29.74 1007 10 16.09344 0 0
4:15 am 04:15 Clear 58 14.2 56 13.2 94 94 SSE 12 19 29.77 1008 10 16.09344 0 0
4:35 am 04:35 Clear 58 14.3 56 13.1 93 93 SSE 10 17 29.77 1008 10 16.09344 0 0
4:55 am 04:55 Clear 57 14.1 56 13.1 94 94 SSE 8 13 29.77 1008 10 16.09344 0 0
5:15 am 05:15 Clear 57 13.8 55 13 95 95 SSE 8 13 29.77 1008 10 16.09344 0 0
5:35 am 05:35 Clear 56 13.6 55 13 96 96 SSE 7 11 29.77 1008 10 16.09344 0 0
5:55 am 05:55 Clear 56 13.5 55 13 97 97 SSE 6 9 29.77 1008 10 16.09344 0 0
6:15 am 06:15 Sunny 56 13.3 55 12.8 97 97 S 7 11 29.77 1008 10 16.09344 0 0
6:35 am 06:35 Sunny 56 13.6 55 13 96 96 S 7 11 29.77 1008 10 16.09344 0 0
6:55 am 06:55 Sunny 57 13.8 56 13.2 96 96 SSE 7 11 29.77 1008 10 16.09344 0 0
7:15 am 07:15 Sunny 58 14.2 56 13.5 96 96 SSE 6 9 29.77 1008 10 16.09344 0 0
7:35 am 07:35 Sunny 59 15.1 57 14 93 93 SSE 8 13 29.74 1007 10 16.09344 0 0
7:55 am 07:55 Sunny 60 15.8 58 14.2 90 90 S 9 15 29.74 1007 10 16.09344 0 0
8:15 am 08:15 Sunny 61 16.2 58 14.4 89 89 S 9 15 29.71 1006 10 16.09344 0 0
8:35 am 08:35 Sunny 63 17 58 14.6 86 86 S 12 19 29.71 1006 10 16.09344 0 0
8:55 am 08:55 Sunny 64 17.6 59 15 85 85 SSW 12 19 29.68 1005 10 16.09344 0 0
9:15 am 09:15 Sunny 65 18.2 60 15.5 84 84 SSW 13 20 29.68 1005 10 16.09344 0 0
9:35 am 09:35 Sunny 66 19 61 15.9 82 82 SSW 9 15 29.68 1005 10 16.09344 0 0
9:55 am 09:55 Sunny 68 19.8 62 16.7 82 82 SSW 8 13 29.68 1005 10 16.09344 0 0
10:15 am 10:15 Sunny 69 20.5 62 16.9 80 80 SSW 8 13 29.68 1005 10 16.09344 0 0
10:35 am 10:35 Sunny 70 21.1 62 16.9 77 77 SW 7 11 29.65 1004 10 16.09344 0 0
10:55 am 10:55 Sunny 72 22 63 17.2 74 74 Calm 29.62 1003 10 16.09344 0 0
11:15 am 11:15 Sunny 73 23 65 18.1 74 74 S 3 6 29.62 1003 10 16.09344 0 0
11:35 am 11:35 Sunny 74 23.3 64 18 72 72 SW 7 11 29.62 1003 10 16.09344 0 0
11:55 am 11:55 Sunny 75 23.8 64 18 70 70 SW 12 19 29.62 1003 10 16.09344 0 0
12:15 pm 12:15 Sunny 76 24.4 65 18.3 69 69 SSW 9 15 29.59 1002 10 16.09344 0 0
12:35 pm 12:35 Sunny 76 24.6 65 18.3 68 68 W 10 17 29.59 1002 10 16.09344 0 0
12:55 pm 12:55 Sunny 76 24.2 64 17.6 67 67 WSW 7 11 29.59 1002 10 16.09344 0 0
1:15 pm 13:15 Sunny 76 24.4 64 18 68 68 SW 12 19 29.59 1002 10 16.09344 0 0
1:35 pm 13:35 Sunny 77 24.8 64 17.6 64 64 WSW 7 11 29.59 1002 10 16.09344 0 0
1:55 pm 13:55 Sunny 77 25 64 17.9 65 65 W 10 17 29.56 1001 10 16.09344 0 0
2:15 pm 14:15 Sunny 78 25.3 64 18 64 64 WNW 10 17 29.56 1001 10 16.09344 0 0
2:35 pm 14:35 Sunny 79 26.1 65 18.1 61 61 WSW 8 13 29.56 1001 10 16.09344 0 0
2:55 pm 14:55 Sunny 79 25.9 63 17 58 58 W 7 11 29.56 1001 10 16.09344 0 0
3:15 pm 15:15 Sunny 78 25.5 65 18.1 64 64 W 7 11 29.56 1001 10 16.09344 0 0
3:35 pm 15:35 Sunny 79 26 65 18.6 64 64 W 7 11 29.56 1001 10 16.09344 0 0
3:55 pm 15:55 Sunny 78 25.7 64 17.8 62 62 W 8 13 29.56 1001 10 16.09344 0 0
4:15 pm 16:15 Sunny 78 25.6 64 18 63 63 W 7 11 29.56 1001 10 16.09344 0 0
4:35 pm 16:35 Sunny 78 25.7 64 17.5 61 61 WSW 6 9 29.56 1001 10 16.09344 0 0
4:55 pm 16:55 Sunny 79 26.2 65 18.2 61 61 WSW 6 9 29.56 1001 10 16.09344 0 0
5:15 pm 17:15 Sunny 80 26.8 65 18.5 60 60 WSW 3 6 29.56 1001 10 16.09344 0 0
5:35 pm 17:35 Sunny 80 26.8 65 18.4 60 60 WSW 6 9 29.56 1001 10 16.09344 0 0
5:55 pm 17:55 Sunny 80 26.7 65 18.1 59 59 WSW 5 7 29.56 1001 10 16.09344 0 0
6:15 pm 18:15 Sunny 80 26.9 63 17.2 55 55 WSW 5 7 29.56 1001 10 16.09344 0 0
6:35 pm 18:35 Sunny 80 26.6 64 17.8 59 59 WNW 5 7 29.56 1001 10 16.09344 0 0
6:55 pm 18:55 Sunny 80 26.5 65 18.4 61 61 Calm 29.56 1001 10 16.09344 0 0
7:15 pm 19:15 Sunny 82 27.5 64 17.8 56 56 Calm 29.53 1000 10 16.09344 0 0
7:35 pm 19:35 Sunny 81 27 62 16.8 54 54 WNW 3 6 29.56 1001 10 16.09344 0 0
7:55 pm 19:55 Sunny 79 26.2 66 18.8 64 64 NE 3 6 29.56 1001 10 16.09344 0 0
8:15 pm 20:15 Sunny 77 25.1 68 19.8 73 73 E 3 6 29.56 1001 10 16.09344 0 0
8:35 pm 20:35 Sunny 77 24.9 66 18.7 69 69 E 3 6 29.56 1001 10 16.09344 0 0
8:55 pm 20:55 Sunny 75 24.1 65 18.5 71 71 Calm 29.56 1001 10 16.09344 0 0
9:15 pm 21:15 Clear 76 24.5 64 17.5 65 65 Calm 29.56 1001 10 16.09344 0 0
9:35 pm 21:35 Clear 70 21.1 64 17.5 80 80 Calm 29.59 1002 10 16.09344 0 0
9:55 pm 21:55 Clear 70 20.9 63 17.2 79 79 Calm 29.59 1002 10 16.09344 0 0
10:15 pm 22:15 Clear 71 21.4 63 17.2 77 77 SSE 3 6 29.59 1002 7 11.265408 0 0
10:35 pm 22:35 Clear 67 19.4 63 17.3 88 88 S 6 9 29.62 1003 10 16.09344 0 0
10:55 pm 22:55 Clear 67 19.5 64 17.8 90 90 S 3 6 29.62 1003 10 16.09344 0 0
11:15 pm 23:15 Clear 68 19.9 64 17.7 87 87 S 5 7 29.62 1003 10 16.09344 0 0
11:35 pm 23:35 Clear 65 18.3 63 17.1 93 93 Calm 29.62 1003 10 16.09344 0 0
11:55 pm 23:55 Clear 64 17.6 62 16.9 96 96 NNE 3 6 29.62 1003 10 16.09344 0 0

Powered by AerisWeather